Total_Precipitation_Accumulation
0.00 0.00 0.00 0.00 0.00 0.00 0.01 0.03 0.05 0.08 0.14 0.14 0.17 0.19 0.19 0.18 0.31 0.71 0.49 0.23 0.16 0.03 0.02 0.02 0.01 0.02 0.03 0.04 0.06 0.07 0.08 0.08 0.08 0.07 0.06 0.06 0.06 0.07 0.07 0.06 0.07 0.11 0.13 0.12 0.11 0.10 0.09 0.07 0.05
0.00 0.00 0.00 0.00 0.00 0.00 0.01 0.02 0.05 0.07 0.10 0.11 0.14 0.16 0.14 0.16 0.16 0.14 0.14 0.09 0.09 0.03 0.02 0.02 0.02 0.02 0.02 0.03 0.04 0.06 0.07 0.07 0.07 0.06 0.05 0.05 0.06 0.06 0.07 0.08 0.09 0.14 0.17 0.15 0.10 0.08 0.06 0.04 0.03
0.00 0.00 0.00 0.00 0.00 0.00 0.02 0.04 0.06 0.06 0.08 0.11 0.15 0.27 0.30 0.20 0.14 0.11 0.06 0.06 0.07 0.03 0.01 0.01 0.02 0.02 0.02 0.02 0.03 0.05 0.06 0.05 0.06 0.05 0.05 0.05 0.05 0.06 0.08 0.12 0.15 0.16 0.17 0.18 0.15 0.11 0.07 0.03 0.02
0.00 0.00 0.00 0.00 0.00 0.00 0.02 0.05 0.06 0.05 0.05 0.08 0.12 0.32 0.44 0.19 0.13 0.10 0.06 0.06 0.06 0.04 0.01 0.01 0.02 0.03 0.03 0.02 0.03 0.05 0.06 0.06 0.06 0.05 0.06 0.06 0.06 0.07 0.11 0.19 0.24 0.22 0.20 0.23 0.22 0.18 0.12 0.05 0.03
0.00 0.00 0.00 0.00 0.00 0.00 0.01 0.03 0.06 0.04 0.03 0.04 0.07 0.24 0.42 0.25 0.11 0.09 0.08 0.06 0.06 0.05 0.02 0.02 0.03 0.05 0.04 0.03 0.04 0.05 0.06 0.08 0.10 0.10 0.09 0.09 0.09 0.10 0.16 0.23 0.26 0.24 0.24 0.25 0.21 0.15 0.08 0.06 0.07
0.00 0.00 0.00 0.00 0.00 0.01 0.01 0.01 0.04 0.04 0.03 0.05 0.07 0.19 0.40 0.32 0.21 0.14 0.13 0.11 0.07 0.06 0.02 0.03 0.05 0.07 0.06 0.06 0.07 0.09 0.09 0.10 0.12 0.13 0.12 0.09 0.08 0.11 0.16 0.21 0.24 0.25 0.22 0.17 0.14 0.10 0.09 0.10 0.11
0.00 0.00 0.00 0.00 0.00 0.01 0.01 0.02 0.03 0.04 0.05 0.06 0.10 0.20 0.41 0.39 0.29 0.23 0.20 0.18 0.13 0.11 0.11 0.10 0.10 0.09 0.10 0.14 0.17 0.17 0.15 0.14 0.14 0.13 0.10 0.08 0.09 0.12 0.15 0.19 0.24 0.24 0.16 0.12 0.10 0.08 0.07 0.07 0.08
0.00 0.00 0.00 0.00 0.00 0.01 0.02 0.03 0.04 0.06 0.09 0.07 0.09 0.21 0.54 0.60 0.39 0.36 0.33 0.34 0.30 0.26 0.28 0.29 0.23 0.17 0.15 0.18 0.21 0.22 0.22 0.21 0.17 0.14 0.10 0.10 0.14 0.15 0.18 0.16 0.17 0.16 0.11 0.07 0.05 0.04 0.03 0.03 0.03
0.00 0.00 0.00 0.00 0.00 0.01 0.02 0.04 0.05 0.05 0.08 0.07 0.08 0.15 0.47 0.56 0.44 0.38 0.40 0.40 0.49 0.57 0.56 0.49 0.42 0.31 0.28 0.27 0.24 0.26 0.27 0.26 0.21 0.18 0.15 0.17 0.21 0.23 0.24 0.17 0.17 0.11 0.07 0.05 0.04 0.03 0.03 0.03 0.03
0.00 0.00 0.00 0.00 0.00 0.01 0.01 0.02 0.04 0.05 0.05 0.08 0.12 0.15 0.30 0.41 0.41 0.43 0.45 0.47 0.52 0.81 0.76 0.55 0.53 0.50 0.46 0.37 0.35 0.36 0.31 0.26 0.23 0.26 0.23 0.27 0.40 0.46 0.38 0.32 0.21 0.15 0.11 0.09 0.07 0.06 0.05 0.04 0.05
0.00 0.00 0.00 0.00 0.00 0.00 0.00 0.01 0.03 0.05 0.07 0.09 0.12 0.22 0.28 0.37 0.44 0.55 0.61 0.60 0.63 0.68 0.61 0.56 0.63 0.60 0.59 0.61 0.66 0.61 0.56 0.52 0.43 0.48 0.44 0.47 0.48 0.44 0.45 0.40 0.32 0.26 0.21 0.20 0.20 0.14 0.10 0.10 0.10
0.00 0.00 0.00 0.00 0.00 0.00 0.00 0.00 0.01 0.04 0.05 0.09 0.15 0.28 0.42 0.52 0.65 0.74 0.79 0.83 0.95 0.92 0.81 0.70 0.64 0.67 0.72 0.74 0.84 0.90 0.86 0.79 0.73 0.66 0.59 0.61 0.65 0.64 0.55 0.57 0.53 0.51 0.47 0.45 0.39 0.32 0.24 0.21 0.19
0.00 0.00 0.00 0.00 0.00 0.00 0.00 0.00 0.01 0.02 0.04 0.06 0.12 0.24 0.37 0.52 0.70 0.97 0.99 1.10 1.30 1.36 1.20 1.00 0.98 0.87 0.90 1.00 1.04 0.92 0.94 0.98 1.05 0.95 0.80 0.84 0.80 0.81 0.88 0.85 0.86 0.80 0.81 0.75 0.63 0.51 0.44 0.39 0.32
0.00 0.00 0.00 0.00 0.00 0.00 0.00 0.00 0.01 0.02 0.03 0.04 0.09 0.16 0.27 0.38 0.57 0.86 1.10 1.29 1.57 1.67 1.52 1.33 1.22 1.21 1.20 1.32 1.39 1.26 1.15 1.15 1.18 1.19 1.10 1.14 1.11 1.10 1.14 1.18 1.21 1.10 1.05 1.05 0.92 0.72 0.64 0.58 0.50
0.00 0.00 0.00 0.00 0.00 0.00 0.00 0.01 0.02 0.02 0.02 0.04 0.07 0.14 0.25 0.41 0.58 0.88 1.28 1.55 1.88 1.91 1.73 1.70 1.56 1.67 1.71 1.82 1.84 1.86 1.77 1.74 1.63 1.53 1.54 1.52 1.47 1.45 1.39 1.52 1.60 1.46 1.40 1.39 1.26 1.09 0.90 0.85 0.78
0.00 0.00 0.00 0.00 0.00 0.00 0.00 0.02 0.05 0.04 0.03 0.05 0.09 0.16 0.29 0.47 0.70 1.00 1.36 1.54 1.83 1.81 1.82 1.87 1.72 1.77 1.96 1.96 1.90 1.94 2.12 2.15 2.07 1.97 1.97 1.83 1.80 1.84 1.90 1.85 1.80 1.73 1.67 1.64 1.68 1.48 1.23 1.14 1.17
0.00 0.00 0.00 0.00 0.00 0.00 0.01 0.05 0.07 0.04 0.03 0.06 0.13 0.18 0.30 0.45 0.59 0.89 1.35 1.57 1.70 1.73 1.62 1.70 1.92 1.88 2.01 2.04 2.00 2.09 2.32 2.46 2.49 2.45 2.36 2.24 2.22 2.21 2.30 2.39 2.25 2.07 1.94 1.90 1.79 1.72 1.55 1.48 1.44
0.00 0.00 0.00 0.00 0.00 0.00 0.02 0.06 0.07 0.06 0.06 0.11 0.15 0.18 0.28 0.44 0.66 0.92 1.23 1.57 1.64 1.70 1.73 1.74 1.94 1.95 2.10 2.22 2.12 2.20 2.27 2.38 2.53 2.67 2.79 2.91 2.95 2.91 2.83 2.72 2.59 2.41 2.27 2.20 2.06 1.95 1.80 1.63 1.47
0.00 0.00 0.00 0.00 0.01 0.02 0.04 0.07 0.12 0.12 0.12 0.19 0.25 0.33 0.45 0.49 0.66 1.00 1.23 1.61 1.94 1.86 1.91 1.85 1.86 2.08 2.17 2.29 2.39 2.62 2.62 2.61 2.85 3.17 3.35 3.56 3.64 3.47 3.39 3.26 3.05 2.84 2.61 2.44 2.19 2.00 1.86 1.64 1.43
0.00 0.00 0.01 0.02 0.02 0.03 0.06 0.12 0.20 0.22 0.22 0.30 0.44 0.54 0.72 0.85 0.89 1.10 1.40 1.72 1.96 1.98 1.98 2.04 2.17 2.25 2.39 2.71 3.14 3.53 3.80 3.97 4.07 4.24 4.30 4.22 4.10 3.98 3.87 3.74 3.48 3.18 2.90 2.64 2.37 2.05 1.85 1.62 1.42
0.00 0.00 0.02 0.04 0.07 0.10 0.13 0.23 0.30 0.31 0.30 0.39 0.57 0.66 0.78 0.94 1.07 1.05 1.13 1.35 1.65 1.88 2.05 2.14 2.43 2.75 3.05 3.51 4.07 4.47 4.81 5.06 4.98 4.80 4.66 4.47 4.28 4.08 3.76 3.55 3.47 3.21 2.82 2.54 2.31 2.03 1.83 1.62 1.39
0.01 0.00 0.02 0.03 0.08 0.17 0.18 0.35 0.45 0.42 0.38 0.39 0.47 0.53 0.62 0.62 0.76 0.92 1.01 1.16 1.42 1.66 1.94 2.19 2.52 3.03 3.71 4.38 4.95 5.36 5.53 5.52 5.42 5.16 4.80 4.42 4.12 3.83 3.50 3.20 2.95 2.72 2.43 2.17 1.98 1.80 1.67 1.53 1.38
0.00 0.00 0.01 0.04 0.06 0.14 0.16 0.37 0.57 0.55 0.50 0.50 0.54 0.51 0.49 0.51 0.58 0.73 0.84 1.01 1.24 1.44 1.75 2.12 2.58 3.22 3.84 4.48 5.03 5.44 5.57 5.45 5.20 4.78 4.31 3.81 3.37 3.05 2.78 2.49 2.21 1.99 1.79 1.60 1.41 1.34 1.37 1.35 1.28
0.00 0.00 0.02 0.05 0.08 0.17 0.16 0.30 0.63 0.79 0.74 0.72 0.68 0.65 0.62 0.63 0.67 0.68 0.69 0.81 1.01 1.27 1.60 1.96 2.38 2.92 3.42 3.82 4.31 4.60 4.74 4.67 4.36 3.89 3.33 2.89 2.58 2.31 2.08 1.83 1.62 1.43 1.25 1.11 1.03 1.00 1.02 1.08 1.09
0.00 0.01 0.06 0.11 0.13 0.19 0.17 0.35 0.74 0.99 0.93 0.90 0.86 0.84 0.75 0.73 0.71 0.67 0.67 0.70 0.85 1.10 1.42 1.66 1.93 2.30 2.62 2.98 3.33 3.53 3.53 3.38 3.16 2.87 2.55 2.22 1.90 1.64 1.44 1.26 1.11 0.98 0.88 0.85 0.79 0.78 0.79 0.82 0.84
0.00 0.01 0.07 0.14 0.16 0.23 0.34 0.62 0.89 0.96 0.89 0.84 0.82 0.74 0.71 0.67 0.66 0.72 0.78 0.81 0.90 1.00 1.18 1.37 1.51 1.70 1.84 1.96 2.14 2.18 2.15 2.06 2.02 1.87 1.67 1.44 1.20 0.97 0.84 0.76 0.68 0.64 0.63 0.61 0.58 0.57 0.59 0.60 0.59
0.01 0.02 0.03 0.05 0.09 0.23 0.52 0.87 1.08 1.05 0.95 0.82 0.70 0.57 0.57 0.54 0.52 0.62 0.70 0.81 0.87 0.89 0.89 0.92 0.94 1.01 1.05 1.06 1.15 1.20 1.20 1.17 1.14 1.04 0.93 0.82 0.74 0.65 0.57 0.52 0.48 0.46 0.45 0.43 0.40 0.37 0.34 0.37 0.41
0.02 0.02 0.03 0.06 0.17 0.30 0.51 0.83 1.17 1.37 1.30 1.14 0.89 0.64 0.56 0.53 0.54 0.55 0.58 0.63 0.67 0.66 0.62 0.59 0.63 0.64 0.59 0.56 0.57 0.61 0.65 0.64 0.62 0.59 0.56 0.52 0.49 0.44 0.39 0.33 0.29 0.27 0.27 0.26 0.27 0.27 0.23 0.22 0.25
0.02 0.03 0.04 0.08 0.14 0.30 0.59 0.97 1.13 1.41 1.40 1.20 0.97 0.76 0.67 0.66 0.66 0.65 0.65 0.58 0.57 0.58 0.54 0.50 0.51 0.48 0.45 0.43 0.44 0.41 0.39 0.37 0.35 0.34 0.33 0.30 0.28 0.26 0.25 0.23 0.20 0.18 0.18 0.17 0.19 0.22 0.22 0.21 0.20
0.05 0.05 0.05 0.11 0.12 0.17 0.50 1.14 1.35 1.53 1.50 1.32 1.22 1.11 0.99 0.90 0.85 0.79 0.72 0.60 0.54 0.52 0.49 0.46 0.44 0.41 0.39 0.35 0.32 0.29 0.27 0.25 0.24 0.22 0.21 0.19 0.18 0.18 0.18 0.17 0.17 0.14 0.14 0.15 0.16 0.16 0.16 0.17 0.17